Airfield :







YOU CAN JOIN US ON...

 
LOGIN :

Register | Disclaimer

   EN    FR    IT 

 









Legend :    VFR   Marginal VFR   IFR   Intensive IFR   Very Intensive IFR
Visi :
Ceiling :
>= 8 km
>= 3000ft
5 to 8 km
1000 to 3000 ft
1500m to 5 km
500 to 1000 ft
800 to 1500m
200 to 500 ft
< 800m
< 200 ft
Symbols :   Thunderstorms  Fog  Heavy snow  Heavy precipitations  Wind > 20 kt






- Airport Elevation : 827 ft


KDDH - William H. Morse State

CURRENT METAR :
  • 161802Z AUTO 22005KT 10SM OVC030 02/M07 A3003 RMK AO2 T00171072

EXPIRED METARs :
  • 161754Z AUTO 20005KT 10SM OVC029 02/M07 A3003 RMK AO2 SLP178 T00171072 10017 21044 56016
  • 161743Z AUTO 21005KT 10SM OVC029 02/M07 A3004 RMK AO2 T00171072
  • 161654Z AUTO 23006KT 10SM OVC031 02/M08 A3004 RMK AO2 SLP182 T00171078
  • 161554Z AUTO 00000KT 10SM OVC031 01/M07 A3007 RMK AO2 SLP192 T00111072
  • 161526Z AUTO 00000KT 10SM BKN030 OVC060 M01/M07 A3008 RMK AO2 T10061072

TAF N/A



MET'MAP, your aeronautical weather chart ! - Copyright ORBIFLY December 2007 - Disclaimer

ORBIFLY MET'MAP TEAM :

Programming & Development : Alexandra Zaïnal
Concept & original design : Baudouin d'Aumeries
Assistance for programming : Marc-Olivier Méhu
Technical & hardware support : Manuel Goepfert

Contact : metmap@orbifly.com




SOURCES & CREDITS :

   NOAA